OE6NPC-WX Weather Reports


time (UTC)temp
C
wind
direction
speed
KPH
gust
KPH
rain 1hr
cm
rain 24hr
cm
rain mn
cm
humidity
%
barometer
mb
20260507164718 15 0.0 0.0 0.00 0.00 0.00 68 961.6
20260507163713 15 0.0 0.0 0.00 0.00 0.00 66 961.3
20260507162709 15 0.0 0.0 0.00 0.00 0.00 65 961.6
20260507161704 15 0.0 0.0 0.00 0.00 0.00 65 961.4
20260507160700 16 0.0 0.0 0.00 0.00 0.00 68 961.0
20260507154651 17 0.0 0.0 0.00 0.00 0.00 60 960.9
20260507153646 17 0.0 0.0 0.00 0.00 0.00 59 960.7
20260507152642 17 0.0 0.0 0.00 0.00 0.00 55 960.4
20260507151638 18 0.0 0.0 0.00 0.00 0.00 54 960.2
20260507150634 18 0.0 0.0 0.00 0.00 0.00 52 960.0
20260507145629 19 0.0 0.0 0.00 0.00 0.00 52 959.8
20260507144625 19 0.0 0.0 0.00 0.00 0.00 52 959.9
20260507143620 20 0.0 0.0 0.00 0.00 0.00 50 959.8
20260507142616 20 0.0 0.0 0.00 0.00 0.00 48 959.9
20260507141612 20 0.0 0.0 0.00 0.00 0.00 47 959.8
20260507140607 21 0.0 0.0 0.00 0.00 0.00 46 959.8
20260507135603 21 0.0 0.0 0.00 0.00 0.00 45 960.0
20260507134559 21 0.0 0.0 0.00 0.00 0.00 44 959.9
20260507133554 21 0.0 0.0 0.00 0.00 0.00 43 960.0
20260507132550 21 0.0 0.0 0.00 0.00 0.00 42 960.0
20260507131546 22 0.0 0.0 0.00 0.00 0.00 40 960.1
20260507130542 22 0.0 0.0 0.00 0.00 0.00 41 960.3
20260507125538 22 0.0 0.0 0.00 0.00 0.00 42 960.3
20260507124533 22 0.0 0.0 0.00 0.00 0.00 41 960.3
20260507123528 23 0.0 0.0 0.00 0.00 0.00 41 960.4
20260507122524 23 0.0 0.0 0.00 0.00 0.00 40 960.4
20260507121519 23 0.0 0.0 0.00 0.00 0.00 40 960.4
20260507120514 22 0.0 0.0 0.00 0.00 0.00 41 960.5
20260507115510 22 0.0 0.0 0.00 0.00 0.00 41 960.6
20260507114505 22 0.0 0.0 0.00 0.00 0.00 43 960.6
20260507113500 22 0.0 0.0 0.00 0.00 0.00 44 960.6
20260507112456 22 0.0 0.0 0.00 0.00 0.00 44 960.6
20260507110447 22 0.0 0.0 0.00 0.00 0.00 44 960.6
20260507105443 22 0.0 0.0 0.00 0.00 0.00 45 960.8
20260507104439 22 0.0 0.0 0.00 0.00 0.00 42 961.0
20260507103435 22 0.0 0.0 0.00 0.00 0.00 43 961.0
20260507102430 22 0.0 0.0 0.00 0.00 0.00 44 961.0
20260507101426 22 0.0 0.0 0.00 0.00 0.00 46 961.1
20260507100422 21 0.0 0.0 0.00 0.00 0.00 46 961.3
20260507095418 21 0.0 0.0 0.00 0.00 0.00 49 961.3
20260507094414 21 0.0 0.0 0.00 0.00 0.00 48 961.4
20260507093410 21 0.0 0.0 0.00 0.00 0.00 50 961.3
20260507092405 21 0.0 0.0 0.00 0.00 0.00 52 961.2
20260507091401 20 0.0 0.0 0.00 0.00 0.00 51 961.1
20260507090357 20 0.0 0.0 0.00 0.00 0.00 50 961.2
20260507085353 21 0.0 0.0 0.00 0.00 0.00 50 961.0
20260507084349 20 0.0 0.0 0.00 0.00 0.00 52 961.0
20260507083345 20 0.0 0.0 0.00 0.00 0.00 53 961.0
20260507082341 20 0.0 0.0 0.00 0.00 0.00 53 961.0
20260507081337 20 0.0 0.0 0.00 0.00 0.00 52 960.8
20260507080332 19 0.0 0.0 0.00 0.00 0.00 55 960.7
20260507075328 19 0.0 0.0 0.00 0.00 0.00 59 960.7
20260507074324 18 0.0 0.0 0.00 0.00 0.00 60 960.5
20260507073320 18 0.0 0.0 0.00 0.00 0.00 61 960.4
20260507072316 17 0.0 0.0 0.00 0.00 0.00 63 960.4
20260507070307 16 0.0 0.0 0.00 0.00 0.00 67 960.3
20260507065306 16 0.0 0.0 0.00 0.00 0.00 69 960.2
20260507064259 16 0.0 0.0 0.00 0.00 0.00 71 960.1
20260507063255 15 0.0 0.0 0.00 0.00 0.00 71 960.2
20260507062251 15 0.0 0.0 0.00 0.00 0.00 73 960.1
20260507061246 15 0.0 0.0 0.00 0.00 0.00 74 959.9
20260507060242 15 0.0 0.0 0.00 0.00 0.00 74 960.0
20260507055238 15 0.0 0.0 0.00 0.00 0.00 75 959.9
20260507054234 14 0.0 0.0 0.00 0.00 0.00 74 959.7
20260507053230 14 0.0 0.0 0.00 0.00 0.00 75 959.5
20260507052226 14 0.0 0.0 0.00 0.00 0.00 74 959.3
20260507051221 14 0.0 0.0 0.00 0.00 0.00 75 959.4
20260507050217 14 0.0 0.0 0.00 0.00 0.00 75 959.3
20260507045213 14 0.0 0.0 0.00 0.00 0.00 75 959.3
20260507044209 14 0.0 0.0 0.00 0.00 0.00 75 959.2
20260507043204 13 0.0 0.0 0.00 0.00 0.00 75 959.0
20260507042200 14 0.0 0.0 0.00 0.00 0.00 74 958.8
20260507041156 14 0.0 0.0 0.00 0.00 0.00 74 958.7
20260507040151 14 0.0 0.0 0.00 0.00 0.00 74 958.7
20260507035147 14 0.0 0.0 0.00 0.00 0.00 73 958.5
20260507034142 14 0.0 0.0 0.00 0.00 0.00 74 958.3
20260507033138 14 0.0 0.0 0.00 0.00 0.00 73 958.1
20260507032133 14 0.0 0.0 0.00 0.00 0.00 74 958.1
20260507031129 14 0.0 0.0 0.00 0.00 0.00 74 958.1
20260507030124 14 0.0 0.0 0.00 0.00 0.00 73 958.2
20260507025120 14 0.0 0.0 0.00 0.00 0.00 73 958.2
20260507024115 14 0.0 0.0 0.00 0.00 0.00 72 957.9
20260507023111 14 0.0 0.0 0.00 0.00 0.00 73 958.1
20260507022106 14 0.0 0.0 0.00 0.00 0.00 72 958.1
20260507021101 14 0.0 0.0 0.00 0.00 0.00 73 958.0
20260507020057 14 0.0 0.0 0.00 0.00 0.00 73 958.0
20260507015052 14 0.0 0.0 0.00 0.00 0.00 73 958.0
20260507014048 14 0.0 0.0 0.00 0.00 0.00 73 957.9
20260507013044 14 0.0 0.0 0.00 0.00 0.00 73 957.8
20260507012040 14 0.0 0.0 0.00 0.00 0.00 73 957.9
20260507011035 14 0.0 0.0 0.00 0.00 0.00 73 957.8
20260507010031 14 0.0 0.0 0.00 0.00 0.00 73 957.9
20260507005026 14 0.0 0.0 0.00 0.00 0.00 73 957.8
20260507004022 14 0.0 0.0 0.00 0.00 0.00 73 957.8
20260507003017 14 0.0 0.0 0.00 0.00 0.00 72 957.8
20260507002013 14 0.0 0.0 0.00 0.00 0.00 72 957.7
20260507001008 14 0.0 0.0 0.00 0.00 0.00 71 957.8
20260507000003 14 0.0 0.0 0.00 0.00 0.00 72 957.7
20260506234958 14 0.0 0.0 0.00 0.00 0.00 72 957.7
20260506233954 14 0.0 0.0 0.00 0.00 0.00 72 957.8
20260506232949 14 0.0 0.0 0.00 0.00 0.00 73 957.8
20260506231944 14 0.0 0.0 0.00 0.00 0.00 72 957.7
20260506230940 14 0.0 0.0 0.00 0.00 0.00 71 957.8
20260506225935 14 0.0 0.0 0.00 0.00 0.00 71 957.8
20260506224931 14 0.0 0.0 0.00 0.00 0.00 71 957.6
20260506223926 15 0.0 0.0 0.00 0.00 0.00 70 957.6
20260506222922 15 0.0 0.0 0.00 0.00 0.00 69 957.8
20260506221918 15 0.0 0.0 0.00 0.00 0.00 68 957.9
20260506220914 15 0.0 0.0 0.00 0.00 0.00 68 957.8
20260506215910 15 0.0 0.0 0.00 0.00 0.00 67 957.8
20260506214906 15 0.0 0.0 0.00 0.00 0.00 67 957.6
20260506213902 15 0.0 0.0 0.00 0.00 0.00 67 957.4
20260506212857 15 0.0 0.0 0.00 0.00 0.00 66 957.3
20260506210849 15 0.0 0.0 0.00 0.00 0.00 66 957.5
20260506205845 16 0.0 0.0 0.00 0.00 0.00 65 957.3
20260506204841 16 0.0 0.0 0.00 0.00 0.00 65 957.2
20260506203837 16 0.0 0.0 0.00 0.00 0.00 64 957.2
20260506202833 16 0.0 0.0 0.00 0.00 0.00 64 957.1
20260506201829 16 0.0 0.0 0.00 0.00 0.00 64 957.0
20260506200825 16 0.0 0.0 0.00 0.00 0.00 64 957.0
20260506195820 16 0.0 0.0 0.00 0.00 0.00 63 957.1
20260506194816 16 0.0 0.0 0.00 0.00 0.00 63 957.0
20260506193812 16 0.0 0.0 0.00 0.00 0.00 61 957.1
20260506192808 16 0.0 0.0 0.00 0.00 0.00 61 957.2
20260506191804 17 0.0 0.0 0.00 0.00 0.00 60 957.1
20260506190800 17 0.0 0.0 0.00 0.00 0.00 60 957.1
20260506185755 17 0.0 0.0 0.00 0.00 0.00 58 956.8
20260506184751 17 0.0 0.0 0.00 0.00 0.00 58 956.6
20260506183747 17 0.0 0.0 0.00 0.00 0.00 57 956.5
20260506182743 18 0.0 0.0 0.00 0.00 0.00 57 956.3
20260506181739 18 0.0 0.0 0.00 0.00 0.00 56 956.2
20260506180735 18 0.0 0.0 0.00 0.00 0.00 55 956.2
20260506175730 18 0.0 0.0 0.00 0.00 0.00 54 956.2
20260506174726 19 0.0 0.0 0.00 0.00 0.00 52 956.1
20260506173722 19 0.0 0.0 0.00 0.00 0.00 52 956.0
20260506172718 20 0.0 0.0 0.00 0.00 0.00 50 956.0
20260506171714 20 0.0 0.0 0.00 0.00 0.00 49 955.8
20260506170709 20 0.0 0.0 0.00 0.00 0.00 49 955.9
20260506165705 20 0.0 0.0 0.00 0.00 0.00 48 955.9